Wind_Speed
4 5 5 5 5 5 4 3 3 3 3 4 4 3 3 3 3 3 4 5 6 7 8 9 10 10 9 9 8 7 7 6 6 6 8 8 13 14 13 13 11 12 11 10 11 9 9 7 10 16 10 2 2 1 1 2 3 4 3 2 1 3 3 4 5 5 3 2 4 5 5 7 3 3 0 1 2 1 1 2 3 4 2 0 2 4 15 27
4 4 4 3 3 3 3 3 3 3 4 5 6 5 5 4 4 4 5 6 7 8 9 10 11 9 11 11 9 9 8 5 3 3 7 11 15 14 12 11 10 10 9 8 9 7 6 6 10 13 7 2 2 1 1 2 3 4 3 2 3 5 3 3 4 4 2 3 5 5 4 6 5 4 2 2 4 3 2 5 3 5 6 2 4 12 22 28
3 3 3 2 2 2 2 3 4 3 5 7 7 6 5 5 5 5 5 7 8 9 9 10 11 10 12 12 9 9 6 2 1 2 8 12 13 11 9 9 8 7 7 7 9 8 5 6 7 6 3 2 2 2 2 2 2 2 3 2 5 6 3 3 4 5 4 3 5 4 3 4 4 3 2 3 4 4 4 6 3 6 9 4 5 14 23 26
1 2 2 2 1 1 2 3 4 4 6 8 8 7 6 5 5 5 6 7 8 9 9 10 11 11 12 12 9 5 1 2 2 3 8 11 11 9 7 7 6 5 5 6 8 9 9 8 4 1 2 2 3 3 3 2 1 1 3 3 6 3 2 4 5 4 3 2 6 3 2 2 3 3 2 4 2 7 6 7 8 10 9 7 6 11 19 21
0 1 1 1 1 1 2 4 5 5 6 8 8 7 6 5 5 5 6 7 9 10 10 11 11 11 12 10 6 4 4 3 3 4 8 10 9 9 6 5 6 6 4 5 7 8 9 6 2 4 3 1 4 4 1 2 2 2 1 4 5 4 2 5 4 2 2 1 4 3 3 2 1 1 3 6 5 7 5 7 10 11 9 9 10 13 15 16
1 0 0 0 1 2 3 5 6 6 6 8 8 7 6 5 5 6 6 8 10 11 11 11 12 12 12 9 5 4 3 1 3 5 8 8 9 8 5 6 7 6 3 4 7 8 7 4 4 3 2 2 2 1 2 4 2 1 2 3 3 4 3 3 2 1 1 4 4 3 2 0 2 3 3 7 9 9 6 6 8 9 9 11 14 14 12 12
3 1 1 1 2 3 5 6 6 6 7 8 9 8 6 5 5 6 7 9 11 11 11 10 12 12 11 8 5 3 3 2 3 5 7 8 8 7 5 5 8 5 2 4 6 5 4 5 3 3 4 2 1 2 1 4 4 4 2 3 1 3 3 3 3 1 3 4 3 2 1 1 1 4 2 4 11 10 8 6 5 4 4 11 14 13 12 14
5 3 2 2 3 4 5 6 6 7 8 9 9 8 6 6 5 6 7 9 11 12 11 10 11 11 10 6 1 4 2 3 3 4 7 7 6 8 5 4 7 4 2 5 5 2 2 4 2 3 3 1 4 2 0 2 4 3 3 3 1 1 2 3 2 0 1 1 1 2 2 5 6 2 4 9 13 9 8 8 5 3 6 9 11 11 11 12
5 4 2 2 3 4 4 5 6 7 8 9 9 7 6 6 6 7 7 9 11 12 11 10 10 10 9 4 4 3 3 2 3 5 7 7 7 7 5 7 9 5 3 4 4 2 1 1 1 3 4 3 4 2 1 1 1 2 3 3 2 2 3 3 1 2 2 2 2 1 5 7 5 2 5 11 12 8 6 6 4 5 7 7 8 10 10 10
5 4 3 3 4 5 5 6 7 7 8 8 8 7 6 6 7 8 8 9 10 11 12 10 9 9 6 3 5 2 3 0 3 5 6 8 7 6 6 10 12 8 4 3 4 4 2 3 3 2 5 2 3 2 1 2 2 2 4 3 2 2 3 3 2 4 2 2 4 4 6 7 5 2 4 9 8 4 1 1 2 7 7 6 7 8 11 11
4 4 4 5 6 6 7 7 7 8 9 9 9 7 7 7 7 8 9 10 10 10 11 9 9 9 5 3 5 2 3 2 4 5 7 7 7 7 8 10 12 11 7 3 4 4 2 3 3 2 2 1 2 1 1 2 2 2 4 2 3 4 4 1 2 4 1 2 5 6 4 5 3 1 6 8 5 3 6 4 2 5 4 5 7 6 9 10
3 4 5 6 6 7 8 8 8 9 10 10 9 8 7 7 7 8 9 9 9 9 9 8 9 8 4 3 3 3 3 4 4 6 8 8 8 7 7 8 9 11 9 4 2 4 5 4 2 3 1 2 3 1 1 2 2 2 3 1 5 7 5 4 3 2 3 1 4 6 2 4 1 6 10 7 4 5 6 2 2 3 1 3 5 4 5 5
4 5 6 6 7 8 9 10 10 11 11 10 9 9 8 7 8 7 7 7 8 9 8 7 9 7 2 1 2 1 3 3 4 7 9 9 8 5 4 6 6 8 9 5 2 4 8 5 4 6 1 4 2 1 2 2 3 1 3 2 3 7 5 6 1 2 3 1 2 4 2 5 6 10 11 6 2 4 4 1 4 3 2 2 3 3 2 3
5 6 6 7 8 9 10 11 11 11 11 10 9 9 7 7 7 6 6 8 9 10 8 5 7 4 1 2 2 2 2 3 5 8 10 10 9 5 3 5 5 6 7 6 5 4 7 5 5 6 3 4 2 1 4 5 3 1 1 2 2 1 5 7 1 4 3 1 3 6 1 6 8 10 10 7 2 6 4 2 5 3 4 4 4 5 4 6
5 6 6 7 8 9 11 12 12 12 11 11 10 9 8 7 7 7 8 10 11 11 7 3 3 1 2 2 1 1 2 4 6 9 10 10 10 6 6 9 8 7 7 8 7 6 6 4 4 4 1 2 3 4 4 4 3 2 0 3 3 3 5 8 3 4 5 1 5 6 2 7 7 8 8 4 4 7 5 2 4 5 6 5 5 7 6 7
5 6 6 6 8 9 11 12 12 12 11 11 11 10 9 9 9 9 9 10 12 10 4 2 1 3 3 2 1 1 3 3 7 10 9 9 9 7 10 12 8 6 7 7 7 7 5 3 3 2 2 2 5 5 3 3 4 3 1 3 2 3 3 5 3 0 3 1 3 1 2 5 4 4 9 5 5 7 6 5 7 7 6 7 6 7 7 7
6 6 5 5 8 10 12 12 11 10 10 10 9 10 10 11 11 8 7 9 9 5 2 1 0 4 2 2 2 3 3 5 9 11 8 7 7 8 10 7 4 7 10 6 5 5 3 3 1 1 2 3 3 4 3 3 4 4 1 2 4 3 2 3 4 3 3 2 2 1 2 7 6 5 10 7 4 8 8 7 9 9 8 8 8 8 8 8
5 4 4 6 9 12 13 11 9 9 9 8 9 11 9 8 8 4 4 7 4 1 2 1 2 3 1 3 1 4 7 9 12 10 7 7 8 9 7 3 3 7 8 4 2 1 2 3 1 1 3 4 3 5 2 4 4 3 3 3 4 3 3 4 4 2 2 2 3 1 2 11 9 6 8 6 4 9 9 8 10 10 9 9 9 9 9 9
4 2 4 8 11 13 13 11 9 10 10 9 10 8 4 3 1 1 6 8 2 1 0 2 2 1 3 3 3 8 11 10 8 5 5 10 12 10 4 1 2 3 3 2 2 1 1 2 3 1 2 2 2 5 6 7 6 5 5 5 4 4 4 5 5 5 3 3 4 5 5 9 6 6 5 6 7 9 11 10 9 9 8 9 9 8 7 8
2 2 5 9 12 13 13 10 9 11 11 12 9 4 2 4 3 2 6 6 2 2 0 1 1 1 3 4 6 11 11 5 2 1 7 14 12 6 2 2 4 5 2 1 1 2 2 2 2 4 6 6 5 6 5 4 5 3 2 3 4 4 5 6 4 5 2 2 5 5 5 8 5 6 5 2 7 9 11 11 10 9 8 8 9 8 8 7
1 4 7 10 13 13 11 9 10 11 10 11 10 5 2 1 2 3 5 4 2 1 0 3 2 2 3 4 6 9 5 2 2 2 9 14 7 2 2 3 5 3 2 2 1 3 4 1 5 6 7 6 3 4 4 2 3 3 2 3 4 3 5 6 3 4 2 1 4 1 2 7 6 7 6 3 8 7 9 11 10 10 9 7 8 8 7 6
1 5 8 11 13 13 10 7 10 10 9 10 9 8 5 3 2 2 1 3 5 1 2 4 2 3 4 3 4 6 2 3 5 4 12 14 5 2 3 3 3 3 3 1 1 5 3 3 6 5 5 3 3 4 5 2 2 3 2 1 3 3 4 5 3 4 2 1 3 3 4 6 6 7 5 6 8 6 6 9 9 10 10 8 8 8 7 7
3 6 9 12 12 13 8 5 9 9 9 10 8 8 4 3 3 2 1 0 4 3 2 3 2 3 4 1 3 5 3 2 3 5 12 12 4 2 1 3 1 2 3 2 2 1 2 4 4 2 2 3 3 5 6 4 1 1 2 2 3 4 2 3 4 5 2 2 3 2 4 4 5 7 8 7 6 6 6 8 8 8 10 9 8 8 7 8
4 7 10 11 12 13 6 3 9 11 9 8 7 6 3 2 3 2 1 0 3 3 0 1 1 1 2 2 4 4 2 1 2 4 10 8 2 2 1 1 1 1 2 1 5 4 4 3 1 3 5 4 1 3 4 2 3 3 4 5 4 4 3 5 3 5 4 3 1 2 4 3 4 5 6 6 6 7 6 8 9 7 8 8 8 8 7 6
6 8 10 12 12 13 5 1 8 11 6 4 5 3 2 2 2 2 1 2 3 4 1 1 1 1 2 3 4 2 0 1 2 3 6 5 1 2 1 1 1 1 4 1 2 3 5 3 0 3 4 5 3 1 1 4 1 4 4 6 6 4 3 3 4 5 4 3 2 3 3 3 3 3 4 2 5 6 4 7 9 7 7 8 8 7 6 6
7 9 11 12 12 12 5 1 7 10 4 2 3 2 1 1 2 2 1 4 2 3 2 1 1 2 4 3 3 0 1 2 2 2 3 3 1 1 0 1 1 1 3 1 1 2 2 3 3 3 4 5 3 2 3 5 3 3 4 5 6 4 0 3 4 3 1 2 2 3 2 3 3 2 5 2 5 5 4 6 7 6 7 7 6 6 6 6
8 9 10 11 11 11 5 2 7 7 2 2 5 5 4 1 2 1 2 4 2 2 1 2 1 2 3 3 2 2 0 3 1 1 2 2 2 1 0 3 1 1 2 1 2 2 1 3 5 5 5 4 1 2 3 5 5 3 3 4 4 1 2 1 1 1 3 3 4 2 4 3 3 4 5 4 6 5 4 5 6 6 7 7 6 6 6 5
8 9 9 10 10 10 6 4 5 4 2 6 7 5 2 1 2 2 3 3 2 1 0 3 1 1 3 3 4 2 2 3 2 1 2 2 3 2 1 2 3 3 3 3 2 5 0 1 0 3 3 1 2 3 4 5 2 4 4 4 1 1 1 2 3 2 2 2 4 4 2 3 4 3 3 4 5 6 5 6 6 6 6 6 6 6 6 6
8 8 9 10 8 9 8 5 5 5 6 7 5 3 1 1 2 4 4 2 1 1 1 1 1 2 5 5 4 3 2 3 1 3 2 3 2 3 1 2 4 2 2 2 4 4 0 1 3 4 2 2 4 5 4 4 2 2 4 3 2 3 2 2 3 2 2 2 4 5 2 2 3 2 5 4 4 6 6 5 5 5 5 5 5 5 6 6
7 7 9 9 8 9 8 4 6 8 7 6 4 2 1 2 4 5 3 0 0 1 1 1 1 3 7 7 5 5 3 2 3 4 3 2 4 4 1 1 4 4 1 3 1 3 2 2 1 3 1 3 3 3 2 3 2 0 3 2 4 4 3 3 2 3 4 2 5 6 3 3 1 4 7 5 4 8 7 5 5 4 5 5 5 5 6 7
7 8 9 9 8 9 7 4 8 9 6 7 6 2 1 2 4 5 1 1 0 2 2 2 3 4 7 5 3 5 4 4 5 5 4 4 5 6 4 2 4 4 4 5 3 4 4 3 1 1 2 1 1 1 1 2 2 3 3 3 3 4 3 4 4 4 3 3 6 5 3 4 1 4 5 3 3 7 8 7 7 6 5 4 4 5 5 6
7 8 9 9 9 10 7 5 9 9 8 8 5 2 4 2 3 2 2 3 2 2 2 2 3 4 5 3 2 5 4 4 4 4 3 3 4 4 4 2 2 4 4 3 4 5 3 1 3 3 2 1 2 2 3 5 5 4 3 4 3 4 4 3 3 1 2 4 4 0 2 2 3 3 2 1 4 6 6 7 8 7 6 4 4 5 6 5
6 7 8 8 9 10 8 8 10 10 10 8 3 4 6 4 1 1 3 3 2 2 1 1 3 4 3 3 4 5 3 2 4 4 1 2 4 3 3 2 1 2 2 2 2 5 4 4 4 2 2 1 2 1 2 3 3 4 2 2 2 2 3 4 4 2 3 4 3 1 2 2 2 2 3 3 5 5 6 7 7 7 6 5 5 6 6 6
6 7 7 7 9 10 9 10 10 10 11 7 4 5 6 2 1 1 3 3 2 4 2 1 4 5 3 2 2 4 2 2 4 5 3 3 5 3 4 5 5 3 1 1 1 1 2 4 2 1 1 2 2 1 1 1 1 2 2 4 2 2 2 3 3 2 4 4 4 3 1 2 1 3 4 4 6 5 6 6 5 6 5 5 5 6 6 6
6 7 6 7 10 11 11 11 11 12 11 5 5 5 3 0 3 1 2 4 2 4 4 2 2 4 4 3 3 3 2 2 4 5 4 3 2 1 2 4 5 3 3 2 2 0 1 4 4 1 1 1 1 1 2 3 2 2 2 3 0 3 3 2 3 4 2 3 4 2 1 1 2 3 4 5 6 6 6 5 6 6 5 5 5 6 6 5
5 6 5 7 11 12 12 11 11 12 8 4 6 4 2 2 1 1 2 2 1 2 5 5 4 4 4 4 3 4 2 1 3 4 3 2 1 0 1 2 2 3 3 2 1 1 1 4 5 3 2 2 2 1 1 2 1 0 1 1 3 4 4 1 3 2 2 2 3 1 1 1 3 3 2 4 7 6 6 6 6 6 5 6 5 5 6 5
5 4 3 8 13 12 11 10 11 10 5 6 6 2 2 2 1 2 1 1 1 0 3 4 2 2 2 3 4 5 4 2 2 3 2 1 0 0 1 2 1 1 1 1 1 1 0 4 5 2 1 2 1 1 3 2 1 1 1 4 2 1 4 3 1 4 3 1 4 1 2 3 2 2 1 4 6 5 5 5 5 5 6 6 5 5 5 6
4 1 2 9 15 12 10 10 10 7 5 6 4 1 1 1 1 1 1 1 1 1 4 1 2 1 1 1 3 6 5 3 3 3 1 2 1 2 1 1 0 1 3 2 1 1 1 3 6 2 1 4 2 2 3 4 1 2 3 3 1 1 1 1 0 1 2 2 4 4 2 3 3 3 4 4 4 4 4 4 5 6 6 5 5 5 6 6
3 1 1 10 16 13 10 9 7 5 6 5 2 1 0 1 1 1 1 0 0 1 2 1 2 2 1 1 2 4 3 2 3 3 1 1 2 2 3 1 1 2 4 2 1 1 1 0 5 3 2 3 3 2 2 4 3 2 1 3 1 3 3 1 1 2 1 2 3 4 4 2 2 2 4 5 4 4 4 5 5 6 5 5 4 6 6 5
2 2 1 11 16 12 10 8 6 6 5 3 2 1 1 1 2 3 2 1 0 1 0 1 1 2 2 1 1 2 2 1 1 2 1 1 1 1 2 2 1 4 5 3 2 1 1 1 4 5 3 3 2 1 3 3 1 1 2 2 2 1 1 0 1 1 2 2 2 3 5 3 2 2 4 7 4 4 5 5 5 5 5 5 5 5 5 3
3 3 3 11 17 12 8 7 6 4 3 2 1 0 2 1 1 3 2 1 0 1 1 2 2 1 1 1 2 1 2 2 1 1 1 1 2 1 1 1 1 3 4 4 3 1 1 1 2 4 4 3 4 4 4 5 4 3 2 2 3 1 1 1 4 2 1 2 3 1 5 4 1 2 4 6 4 4 5 5 5 5 5 5 5 4 4 3
5 3 3 11 17 11 6 5 2 2 4 2 1 0 1 2 1 2 2 1 0 0 0 1 1 1 1 1 2 1 1 2 1 1 1 1 0 1 1 1 1 1 1 2 2 1 0 2 0 4 5 5 7 4 3 4 4 4 2 1 3 2 2 2 4 4 1 1 2 2 3 3 1 1 3 4 4 5 5 5 4 4 5 5 5 3 3 4
3 1 3 13 17 7 6 5 4 4 3 1 0 1 0 1 0 1 2 1 1 1 2 1 0 0 0 1 0 1 1 1 1 1 1 2 2 1 1 0 0 1 1 1 2 1 0 2 1 4 5 4 6 4 2 2 2 2 1 1 1 1 1 4 4 2 1 3 1 0 3 3 2 1 3 3 4 5 4 4 4 3 4 5 4 2 3 4
2 2 2 13 15 5 6 3 1 2 2 2 2 2 1 0 1 0 1 2 1 1 1 1 0 1 1 0 1 1 1 1 1 1 1 2 2 0 1 0 0 1 1 1 1 1 1 0 1 3 5 6 6 6 5 4 2 0 2 1 1 1 4 3 1 2 0 4 3 2 5 3 2 2 4 4 4 5 3 4 4 3 4 5 3 3 4 4
2 0 3 9 15 10 4 3 4 3 1 1 3 2 2 1 0 0 1 1 1 1 1 1 1 1 1 1 1 2 1 1 2 2 2 2 2 1 0 1 0 1 1 2 1 0 1 1 1 1 2 3 4 4 4 3 3 2 1 2 1 1 3 2 1 2 1 3 2 3 5 2 2 2 3 3 3 4 3 3 3 4 4 4 3 3 4 4
2 2 3 6 10 9 3 1 4 4 2 2 2 2 2 2 2 1 0 0 1 1 1 1 1 1 2 2 2 3 3 2 2 2 1 3 3 2 1 2 0 1 2 2 0 2 2 1 2 4 5 5 5 6 4 0 3 5 5 6 5 1 2 3 2 1 3 1 2 5 3 1 3 2 3 2 1 3 4 4 4 5 6 5 3 3 5 5
2 2 1 2 4 4 4 4 4 4 2 3 2 1 2 2 3 2 1 0 1 1 0 0 1 2 1 2 2 2 4 2 2 2 2 3 4 3 2 1 1 2 2 1 0 3 3 2 3 4 7 7 6 8 6 2 4 6 6 7 6 1 2 4 3 4 3 2 5 5 2 3 4 2 3 4 2 4 5 5 5 6 7 6 3 4 5 5
3 2 1 0 0 1 3 4 3 4 4 2 2 1 2 3 3 2 1 1 1 1 0 1 3 2 1 1 0 2 4 4 3 2 1 2 3 4 4 1 1 3 2 2 2 3 4 3 3 2 6 8 7 9 8 4 4 3 2 6 6 2 3 4 4 4 3 1 7 4 2 6 4 1 3 4 3 4 6 5 5 6 7 5 4 5 6 6
3 2 0 2 1 2 1 2 2 5 5 3 2 2 2 2 3 1 2 1 3 2 2 1 3 4 3 3 2 1 3 2 3 4 1 1 2 2 3 2 1 2 3 2 3 2 3 3 3 1 5 9 8 7 4 3 2 2 4 5 4 1 4 3 3 2 2 5 7 5 8 8 3 1 3 4 3 4 5 5 6 8 9 6 5 6 8 9
2 2 1 3 3 1 1 2 3 4 3 3 2 2 1 1 2 3 1 1 2 3 2 1 5 5 4 3 4 3 5 5 4 5 3 0 3 1 1 1 1 3 4 2 2 1 1 2 1 2 3 8 7 5 3 1 1 2 3 6 6 4 2 2 1 1 1 4 6 7 9 8 1 1 3 4 3 5 6 7 9 10 8 6 7 8 9 10
3 2 2 4 3 3 2 2 2 4 3 3 2 1 1 0 1 2 1 1 1 2 1 2 4 4 3 1 3 6 6 5 6 6 5 3 3 2 2 2 1 3 4 1 1 2 1 2 2 5 3 6 4 5 8 6 2 4 3 6 6 4 3 1 2 0 1 5 7 8 7 5 1 2 5 4 5 7 8 9 11 9 5 5 7 9 10 10
4 2 2 5 3 2 2 2 3 3 1 1 1 1 1 2 2 1 0 1 1 2 3 4 3 2 3 4 4 5 4 4 5 5 4 3 2 3 3 3 2 0 1 1 0 1 2 1 2 3 2 6 4 6 9 7 4 2 3 3 1 0 1 2 3 3 3 3 4 6 4 3 3 5 6 6 6 7 8 9 10 8 5 6 8 10 11 10
Wind_Direction
135 142 136 118 106 99 93 77 60 32 24 11 358 342 327 317 315 318 314 323 321 327 331 333 339 340 340 327 313 303 297 297 290 347 30 6 348 344 335 328 323 324 320 321 328 335 347 4 6 1 2 31 50 81 38 27 57 54 80 109 233 199 189 190 194 194 172 216 227 228 181 156 212 255 194 17 15 360 265 278 270 271 302 38 222 155 149 160
131 143 148 126 105 88 72 44 28 18 14 2 351 331 317 307 295 301 301 312 311 319 327 329 335 334 338 334 313 302 296 295 296 21 17 353 350 347 337 331 322 319 320 323 332 347 357 335 342 355 9 57 352 36 68 353 65 90 111 101 232 202 198 207 198 194 180 208 207 228 197 164 202 199 125 222 272 329 251 272 292 264 276 2 112 143 151 158
136 144 151 141 112 72 53 24 14 5 3 358 352 340 326 315 308 312 311 318 319 325 332 333 335 334 337 337 324 306 286 288 329 350 353 350 350 348 343 331 317 320 323 324 329 337 334 307 321 344 19 51 332 37 52 12 62 128 114 99 240 213 201 222 202 199 221 199 174 229 205 165 215 175 133 202 253 301 231 241 231 233 247 215 139 146 154 159
127 141 145 135 119 58 29 13 5 354 352 355 354 350 338 330 329 333 333 335 335 337 339 339 337 335 336 340 347 330 304 48 327 313 349 349 352 355 348 329 330 339 328 331 332 331 323 309 311 357 54 27 324 36 55 341 49 100 112 172 225 183 182 230 208 207 247 193 165 195 144 166 235 172 171 159 220 291 247 228 213 223 232 190 166 160 160 163
131 122 105 83 74 18 356 353 348 343 341 349 354 349 340 340 348 353 353 349 345 345 342 341 340 335 332 340 358 3 46 38 304 335 353 351 1 0 353 354 5 358 345 345 335 337 331 323 44 54 55 38 339 31 54 288 78 70 24 201 200 145 189 241 216 221 265 101 115 125 142 209 243 165 195 161 201 255 226 221 210 217 223 177 171 170 165 167
71 122 92 27 333 313 323 331 331 330 330 341 349 344 333 331 350 359 358 353 346 344 341 339 343 339 330 330 328 339 57 143 296 356 349 355 9 4 9 12 3 351 347 349 343 356 354 1 56 62 54 57 6 83 223 307 61 107 288 226 209 179 182 226 209 232 111 91 106 148 189 339 23 297 227 178 219 235 220 217 194 213 223 178 164 163 165 175
50 32 341 297 300 300 309 317 319 320 325 333 339 338 325 317 339 349 353 354 346 342 340 336 342 344 339 331 318 356 86 207 311 355 346 4 9 6 19 356 352 343 344 10 2 12 32 32 55 126 85 65 183 146 208 327 40 101 222 235 223 176 166 198 199 168 105 117 179 165 23 262 223 283 304 233 241 242 245 241 198 205 192 157 154 165 176 181
49 42 19 321 301 303 307 311 313 315 320 325 332 332 314 306 320 333 343 348 346 343 339 336 340 345 347 348 8 14 2 260 318 348 350 6 7 11 16 348 359 357 39 35 13 16 73 46 52 145 95 145 169 134 127 334 26 94 198 221 147 154 215 216 187 129 141 197 202 72 325 245 218 232 313 267 258 257 247 245 225 147 118 142 158 172 178 184
48 46 30 349 314 314 312 313 315 316 323 327 330 326 305 297 301 314 327 334 341 341 338 340 341 344 347 6 76 12 295 254 341 338 348 1 6 17 20 16 20 24 66 35 13 48 134 153 214 182 168 182 134 114 98 91 257 197 177 183 159 214 234 201 200 258 263 265 126 111 282 270 256 272 289 262 261 269 242 241 229 145 131 151 166 174 179 189
38 32 16 351 333 329 326 322 320 323 331 334 333 328 309 294 296 306 313 322 331 335 339 343 343 349 346 20 70 358 272 295 341 334 344 348 1 21 30 28 23 20 25 13 25 54 116 186 221 152 140 146 108 119 146 134 191 183 135 136 139 219 233 173 219 265 283 256 165 177 259 282 298 312 276 265 271 297 110 113 169 158 166 163 161 180 184 195
19 9 358 346 339 333 331 327 329 331 333 337 337 330 316 305 305 310 313 319 323 327 333 336 343 350 349 57 97 220 283 345 320 340 345 339 1 15 25 26 18 12 1 2 41 40 20 233 215 110 108 154 111 88 257 183 142 121 121 90 351 347 308 236 231 265 274 243 182 168 252 301 341 245 235 255 292 17 82 81 119 150 181 166 159 175 180 203
360 353 346 342 337 332 333 331 331 331 330 335 335 328 319 312 312 314 317 324 323 320 319 325 336 339 356 61 138 223 312 343 318 341 343 341 354 357 10 13 8 5 350 346 36 32 3 306 163 101 280 162 127 81 214 176 93 81 93 46 318 359 328 249 218 226 159 193 177 147 343 328 213 231 241 257 330 39 93 105 56 92 105 156 159 158 164 191
348 345 341 336 336 335 336 333 330 329 327 329 331 328 319 311 314 313 318 332 332 319 304 313 325 326 14 22 234 285 333 331 330 341 340 337 340 332 339 344 345 349 343 349 351 14 5 333 131 118 98 110 133 194 120 54 61 50 65 92 317 5 325 266 180 129 151 218 158 125 331 286 243 249 260 282 2 93 116 225 331 28 77 127 136 104 88 83
346 343 340 338 340 340 337 334 329 324 323 324 327 327 318 312 313 305 310 325 331 319 297 307 326 326 101 252 268 33 337 319 332 340 341 335 335 327 303 310 316 321 321 326 322 339 352 351 99 103 70 93 147 117 47 11 32 45 51 58 5 9 286 293 303 139 155 303 58 97 217 262 265 268 280 299 189 141 126 319 336 31 114 130 116 85 54 40
348 341 342 346 346 343 338 333 326 321 319 318 321 322 317 311 308 305 306 312 321 314 287 279 322 31 73 300 273 59 331 328 338 343 345 342 345 340 321 320 310 304 302 300 306 318 327 347 73 92 57 22 69 72 24 353 13 35 46 315 342 180 263 305 291 161 169 275 46 89 212 268 269 272 295 325 122 120 106 42 26 74 108 106 80 70 62 47
347 344 348 355 352 347 338 331 325 321 319 314 315 315 308 301 299 301 300 305 313 306 264 235 305 100 92 305 306 355 333 332 337 342 343 340 345 338 329 326 316 319 319 296 287 303 326 29 58 115 126 47 70 82 38 17 346 354 91 254 255 187 264 315 310 224 160 191 7 79 225 272 281 306 316 340 107 111 105 85 61 73 83 78 73 75 78 67
348 349 358 3 357 352 344 335 328 325 326 318 310 307 301 295 291 289 300 313 311 294 193 216 359 110 112 319 343 331 325 316 318 328 338 338 332 331 331 331 333 334 331 314 284 295 341 49 35 245 75 56 84 89 43 353 303 321 13 256 245 203 227 289 304 332 72 118 271 269 201 254 279 339 326 331 114 121 103 85 77 81 83 82 87 88 83 80
350 357 11 7 360 358 352 343 338 338 340 332 314 308 303 294 281 267 337 336 311 184 132 328 34 98 283 340 347 304 309 304 308 318 336 342 324 321 321 306 330 336 343 356 336 328 357 22 49 3 11 16 67 96 135 228 223 240 238 235 271 276 238 247 271 270 97 97 240 208 237 259 283 337 332 349 81 110 96 92 93 93 95 93 90 89 87 86
349 10 8 2 1 360 355 351 353 350 350 347 327 312 315 328 309 100 17 14 47 149 224 289 6 155 248 302 299 313 315 304 310 324 345 344 328 320 313 231 350 15 26 18 339 332 45 27 47 57 300 265 196 153 182 210 187 203 217 186 222 264 259 245 255 251 173 119 236 217 234 259 298 342 342 23 56 92 99 99 99 98 98 95 91 90 90 85
352 17 3 360 0 360 357 359 8 2 360 360 353 1 51 17 14 347 358 21 108 164 123 232 242 251 294 311 317 333 332 315 319 15 358 346 333 338 41 37 29 46 62 194 262 330 76 53 262 226 229 229 219 192 183 185 152 144 164 175 229 239 271 270 269 281 186 141 257 222 231 267 303 313 284 58 68 90 107 105 102 105 99 97 97 91 89 87
34 9 0 357 357 360 359 6 18 18 16 14 20 54 109 99 60 312 323 339 268 178 8 269 246 280 294 295 326 349 354 343 334 348 0 351 343 9 354 19 37 7 300 196 213 358 57 96 246 231 221 210 198 170 138 126 109 74 156 213 285 237 255 266 238 300 324 142 273 286 329 299 327 318 284 109 94 96 111 112 110 108 101 97 98 93 92 88
20 358 356 352 354 359 358 11 19 22 29 27 46 86 126 142 131 243 273 319 296 308 329 304 317 302 291 276 330 359 39 360 334 326 358 357 8 17 323 40 71 258 308 35 360 356 21 241 246 240 214 168 63 68 86 81 101 75 127 171 294 259 275 286 277 319 350 146 274 341 359 319 336 355 16 76 103 106 97 107 112 111 105 99 95 91 84 72
350 350 352 349 353 356 355 18 15 16 31 38 65 99 119 147 157 193 127 291 295 325 358 339 2 314 316 324 345 4 50 32 321 306 354 2 8 24 18 48 45 249 342 28 182 266 304 256 247 237 137 122 26 36 72 54 45 137 165 169 264 281 323 284 297 321 300 228 258 333 5 324 332 20 43 45 78 93 79 88 90 94 101 98 92 84 78 73
339 344 347 347 353 354 347 16 11 13 28 44 71 93 119 147 148 163 132 57 304 313 281 269 232 231 290 308 343 13 69 106 241 293 352 12 4 360 85 167 15 307 287 163 158 193 242 256 256 63 65 106 136 17 81 95 326 281 202 188 236 269 240 229 281 318 315 324 296 38 26 346 352 49 66 38 58 80 78 86 79 73 86 89 83 74 70 74
333 339 344 349 355 356 347 306 3 7 10 43 66 70 103 90 101 152 120 45 338 303 292 306 308 245 278 309 332 2 100 292 227 271 344 16 6 338 360 188 52 297 259 223 135 243 264 282 30 78 53 74 113 292 200 168 262 309 239 198 200 206 228 274 334 347 2 348 311 48 37 309 334 80 119 80 76 80 68 92 94 82 82 84 82 74 65 60
334 339 345 351 359 4 3 265 349 354 356 48 31 341 319 24 70 134 88 56 356 297 333 327 311 336 319 332 338 91 70 325 250 265 339 11 352 146 93 300 30 276 253 262 330 256 279 351 48 104 94 73 80 270 242 157 122 307 253 180 163 154 350 339 1 10 7 258 274 72 118 253 297 184 181 155 102 93 75 95 102 94 87 86 85 79 68 52
339 344 351 355 3 10 11 309 336 349 11 339 328 314 293 329 57 91 44 43 356 295 351 301 305 12 318 315 360 88 7 313 306 312 346 8 342 99 101 302 350 299 272 65 4 265 187 27 37 72 86 76 67 265 215 138 119 255 239 130 123 74 331 311 93 174 234 257 313 2 139 185 256 222 190 143 112 105 103 105 102 99 97 93 90 80 69 57
349 353 359 358 4 12 8 345 344 1 339 312 318 321 298 333 36 58 79 63 343 14 65 287 283 350 314 332 33 76 283 319 48 293 317 34 354 40 41 244 180 256 301 102 246 268 139 47 102 119 78 29 242 231 182 139 129 256 210 135 131 287 231 180 147 205 260 7 322 297 141 161 256 242 156 138 129 140 158 143 122 115 108 100 94 78 62 52
358 360 3 2 6 7 2 360 6 357 325 319 333 336 314 50 41 57 80 103 326 51 180 291 303 303 338 4 19 18 331 357 55 282 332 54 13 43 67 224 155 186 307 109 202 247 61 240 208 148 126 249 240 242 190 155 249 252 155 130 32 50 82 107 118 131 40 28 271 264 194 166 262 228 165 176 171 171 179 159 134 125 116 103 89 74 56 48
359 2 7 8 7 2 359 5 4 352 331 335 344 317 295 62 62 59 40 331 38 323 240 17 344 326 9 16 344 349 14 348 326 328 360 32 359 25 88 206 103 123 335 19 193 243 328 303 192 117 180 214 217 253 193 164 249 82 88 36 16 35 44 40 75 92 56 321 256 253 223 150 290 229 185 199 204 174 163 146 136 118 104 92 77 69 54 47
357 2 7 10 11 4 4 355 351 349 336 334 331 328 85 33 62 85 33 322 75 330 360 10 335 7 30 30 321 338 3 328 332 8 10 5 1 6 29 32 41 58 11 6 343 312 360 16 307 295 268 171 93 314 343 12 15 75 65 33 7 348 15 22 357 43 78 262 262 252 203 149 206 246 212 223 197 154 147 143 140 129 114 99 78 67 53 48
354 360 4 9 12 9 10 351 344 347 338 332 333 51 87 27 22 98 286 327 358 334 2 322 321 5 6 5 332 323 339 331 355 49 37 26 40 18 29 46 9 12 360 338 328 337 1 318 290 311 306 107 83 346 337 1 32 49 36 48 30 341 1 357 317 338 188 245 261 206 104 171 224 255 248 169 125 131 136 136 137 136 129 111 80 61 50 40
347 357 2 7 12 10 8 355 349 348 338 336 359 56 76 74 11 247 290 327 360 327 340 278 322 350 347 4 351 320 331 332 356 37 54 73 69 35 10 29 54 27 332 274 337 351 338 302 312 344 324 38 93 47 333 333 15 6 348 93 82 15 4 305 281 294 280 265 265 327 15 284 267 349 17 86 101 110 116 122 128 128 126 112 79 59 49 33
337 350 356 4 11 8 3 356 354 348 339 349 53 55 57 65 266 329 321 282 291 333 351 355 328 344 21 39 329 331 9 335 349 17 4 33 51 13 339 351 14 50 48 7 357 24 9 303 298 121 299 14 61 118 170 174 334 304 198 134 129 156 164 256 241 246 279 284 294 306 303 247 275 20 20 66 76 79 95 106 105 102 107 96 68 53 45 28
331 342 354 5 9 4 360 358 354 348 345 13 66 61 76 235 273 341 299 268 302 333 315 328 12 17 7 333 318 4 36 305 340 20 24 40 60 15 342 329 340 30 71 34 316 75 107 265 267 288 273 88 57 264 117 81 4 280 154 98 359 191 158 215 214 206 257 322 313 279 219 225 97 59 22 55 71 69 78 85 80 73 61 62 55 42 39 22
333 345 6 12 7 360 357 358 351 345 354 62 68 55 143 217 259 170 225 278 338 314 316 345 37 44 346 318 332 3 22 285 329 12 27 49 128 291 325 268 301 14 67 97 281 345 25 277 288 344 348 100 125 241 30 39 317 325 78 256 242 186 126 110 271 307 33 360 288 234 139 69 96 100 20 54 70 60 58 65 67 58 42 45 46 40 35 10
350 1 24 14 4 355 351 354 347 344 13 83 81 88 209 234 184 179 232 322 304 300 28 8 357 21 342 316 316 332 350 332 332 13 9 340 70 79 323 276 235 28 33 91 259 283 155 276 300 3 341 313 143 140 5 360 160 117 229 246 247 96 86 96 287 342 15 282 274 287 173 186 154 163 180 93 82 61 47 53 53 43 38 36 34 36 23 6
1 36 47 7 360 353 351 350 343 352 60 74 70 132 204 256 171 198 243 6 294 33 67 39 294 29 54 305 295 306 338 353 342 6 7 319 353 124 91 318 259 40 1 355 293 302 100 283 302 327 241 304 354 69 351 333 32 135 212 242 57 66 329 20 79 307 334 295 288 308 281 208 194 196 178 143 111 84 46 38 37 31 32 31 27 21 9 12
9 70 25 356 356 355 350 343 347 31 71 64 61 170 264 280 251 263 222 115 46 75 74 234 281 11 34 132 270 295 335 4 328 351 42 360 344 100 94 15 310 360 350 6 166 280 50 182 287 287 238 303 356 41 331 311 334 21 355 334 37 160 200 221 165 188 237 288 285 314 321 270 248 237 160 134 108 90 55 31 31 27 25 27 25 13 5 17
33 75 324 351 359 353 344 356 27 53 68 82 152 185 353 312 283 296 249 222 127 115 73 213 228 340 331 342 303 301 345 353 297 334 347 333 337 28 60 48 318 320 330 18 86 300 5 136 256 292 322 331 332 273 207 208 269 33 26 336 313 280 264 277 269 153 143 234 247 307 303 266 296 329 123 117 102 93 69 42 29 22 22 18 11 8 7 9
59 59 302 348 358 345 349 31 47 58 87 95 100 344 7 42 311 324 309 260 222 206 195 164 169 229 275 327 315 294 330 325 312 322 289 337 24 355 3 109 180 311 340 24 44 346 353 141 235 294 325 307 263 246 189 168 169 156 164 213 202 208 4 317 292 310 82 182 187 230 288 270 314 19 111 118 113 96 73 56 31 14 16 3 347 3 11 347
64 63 288 343 351 344 23 55 15 53 96 83 42 344 353 53 29 328 333 356 23 302 39 108 147 180 177 255 294 293 318 305 283 335 301 278 337 260 218 136 172 228 42 21 328 292 131 102 94 278 271 262 270 274 145 157 164 149 168 188 151 141 125 184 259 277 319 288 180 153 278 269 284 32 106 122 108 81 66 66 48 10 360 343 331 359 1 325
79 147 291 347 348 351 72 53 337 16 54 292 312 180 302 56 127 305 341 7 360 335 12 25 157 46 206 225 336 335 317 277 235 287 296 261 262 223 186 122 259 170 91 354 298 314 61 87 34 284 286 302 310 337 67 97 107 120 277 14 109 286 147 164 207 201 196 272 260 230 269 249 226 79 95 105 84 68 56 60 51 3 341 330 320 329 318 307
121 215 290 359 3 32 100 70 2 12 336 309 31 12 326 81 148 324 331 332 346 62 51 360 312 16 350 60 91 262 282 333 294 310 289 238 250 157 149 264 194 138 125 200 241 327 307 234 54 329 332 340 345 356 353 344 21 137 280 16 105 78 86 123 180 77 55 255 200 198 263 251 179 115 75 62 50 46 34 33 25 345 331 320 301 286 278 298
69 359 277 2 25 56 106 147 142 131 318 32 42 357 345 357 285 181 239 292 318 128 91 339 347 39 338 347 360 303 288 217 247 320 2 265 270 327 46 311 206 167 217 246 247 308 257 218 128 66 312 304 310 309 297 303 314 302 318 339 284 140 120 198 262 63 277 262 166 189 244 264 187 141 61 56 38 7 346 344 335 318 322 311 280 283 295 323
79 53 316 339 21 50 72 115 104 110 131 101 58 360 18 358 304 276 142 329 360 58 42 323 321 32 21 23 7 319 301 236 239 315 340 265 273 294 314 325 332 205 258 286 57 85 86 278 220 184 205 231 247 256 256 279 298 292 301 303 297 280 131 123 93 167 209 215 296 229 215 291 236 233 360 357 338 340 325 325 328 324 332 330 304 309 324 338
81 89 23 331 348 24 28 9 40 72 108 113 97 360 356 329 321 358 98 211 360 33 68 8 25 42 6 13 17 296 286 303 294 285 263 251 270 295 312 21 22 313 301 314 68 88 81 308 271 207 229 242 243 261 281 320 273 270 281 292 300 341 110 125 171 233 173 79 291 250 106 359 255 221 345 319 315 343 329 327 330 324 328 328 299 295 315 329
64 134 160 115 359 36 24 1 38 62 42 65 112 8 358 357 358 8 264 296 357 6 51 18 11 19 258 254 46 288 301 334 325 279 282 293 303 331 343 8 15 345 13 18 351 98 116 263 257 210 265 266 253 264 274 269 264 276 320 308 306 263 180 181 227 230 148 214 271 267 357 316 274 185 331 307 313 327 314 305 304 309 320 321 303 308 322 332
74 114 319 7 87 150 99 346 69 76 44 43 76 31 34 35 3 306 251 355 356 336 35 9 302 313 289 242 164 227 284 328 314 284 262 300 301 337 342 316 331 9 42 23 335 113 134 262 249 200 294 289 278 276 263 221 268 19 40 355 345 191 185 201 263 250 193 249 271 310 321 300 258 183 289 285 271 285 300 307 310 320 330 336 335 332 333 336
105 144 180 44 56 78 35 12 74 81 36 27 55 29 76 104 321 295 273 65 353 316 9 333 278 287 285 229 170 215 232 199 237 258 208 242 298 254 261 255 256 349 12 48 329 337 115 281 274 84 332 298 299 327 336 246 194 75 43 10 15 39 69 52 355 13 351 287 295 322 313 293 230 118 305 295 292 310 325 328 324 329 336 341 340 336 333 336
101 124 139 104 62 354 3 17 72 87 36 6 36 4 360 359 272 277 269 203 202 251 250 253 276 291 317 283 200 240 246 199 213 239 205 198 255 227 233 228 175 340 342 23 325 342 45 296 347 50 6 287 303 355 330 319 58 88 29 359 8 26 29 326 270 290 281 286 302 315 303 280 274 343 324 315 323 329 332 329 324 327 339 341 336 335 337 345
104 71 80 102 78 355 21 17 30 73 57 327 354 291 296 305 298 305 327 276 234 225 223 209 218 278 333 323 265 256 256 210 220 240 211 197 239 249 254 241 172 181 276 184 307 329 108 97 353 40 338 277 297 334 321 332 30 37 315 319 309 27 11 321 302 289 246 233 275 288 277 275 311 325 320 320 328 330 331 326 321 327 349 344 336 340 345 352
Height
834 834 833 833 833 833 832 832 832 832 831 831 831 830 829 829 828 828 827 827 826 825 824 823 823 822 822 821 820 819 819 818 817 817 817 817 817 815 813 812 811 810 810 809 808 807 806 805 805 804 803 804 807 808 808 809 810 812 820 826 827 830 829 826 827 827 827 824 825 826 824 826 826 826 827 827 827 828 830 829 828 828 828 829 828 828 828 830
834 834 834 834 833 833 833 833 832 832 832 831 830 830 829 829 828 828 827 826 825 825 824 823 822 822 821 820 819 818 818 817 817 817 817 817 815 814 813 811 811 810 809 809 808 807 807 807 806 806 805 806 809 809 810 811 811 815 824 827 826 827 826 825 825 824 827 823 822 825 825 826 825 825 827 827 827 829 829 828 829 828 827 828 829 829 830 831
834 834 834 834 834 833 833 833 832 832 832 831 830 829 829 828 828 827 827 826 825 824 823 822 822 821 820 819 818 817 817 817 817 817 816 816 815 813 812 811 810 809 809 808 808 807 808 808 807 808 808 808 810 810 810 811 813 817 822 824 824 825 825 826 825 823 825 824 823 824 826 827 825 825 826 826 827 828 827 826 826 827 825 827 830 830 830 832
834 834 834 834 834 834 833 833 832 832 831 831 830 829 829 828 828 827 826 826 824 824 823 822 821 820 820 818 817 817 815 817 818 816 816 815 814 813 812 810 809 808 808 808 807 807 807 807 807 808 808 810 811 811 812 813 814 818 820 820 822 825 824 823 824 824 825 825 823 823 826 826 825 826 826 826 828 826 823 822 822 821 820 825 830 831 831 832
834 834 834 834 834 834 833 833 832 832 831 830 830 829 828 828 827 826 826 825 824 823 822 822 821 820 819 818 818 816 817 821 819 815 815 814 813 812 811 810 809 808 808 807 807 807 806 806 806 808 809 811 812 812 815 815 815 818 821 822 822 824 823 821 824 824 825 825 824 824 826 825 825 827 825 826 827 821 817 816 817 818 818 822 827 829 831 832
835 834 834 834 834 833 833 833 832 831 831 830 829 828 828 827 827 826 825 825 824 823 822 821 820 819 818 818 818 816 819 822 817 814 815 814 812 812 811 810 809 808 807 807 807 806 807 807 807 809 811 812 814 814 815 817 816 817 822 823 823 823 821 821 824 824 825 824 823 824 825 826 826 824 825 826 821 816 814 814 815 816 817 819 823 827 829 831
835 835 835 834 834 833 833 833 832 831 831 830 829 828 827 827 827 826 825 824 824 823 822 821 820 819 818 817 817 817 819 819 815 815 815 813 812 811 810 810 808 807 807 807 807 807 808 808 808 810 812 814 817 816 816 817 816 817 820 821 822 822 821 822 824 824 825 823 823 826 825 826 825 824 825 822 815 813 814 815 815 816 817 819 822 825 826 828
836 835 835 834 834 833 833 833 832 831 831 830 829 828 827 827 826 826 825 824 823 823 822 821 820 819 818 817 817 819 819 816 815 815 814 813 812 811 810 809 808 807 807 807 807 807 808 809 810 811 813 815 816 816 818 818 817 818 819 820 822 823 822 824 824 824 824 823 824 826 825 824 824 827 825 817 811 812 814 813 815 817 818 820 821 824 826 827
836 836 835 835 834 834 833 833 832 831 831 830 829 828 827 827 826 826 825 824 824 823 822 821 820 819 819 818 818 821 818 815 815 815 814 813 812 811 811 810 808 807 807 808 808 807 808 810 810 810 811 815 815 815 818 818 818 819 819 820 821 822 822 824 824 823 824 824 825 826 824 823 825 828 822 812 810 811 812 813 814 817 819 820 821 823 825 826
836 836 835 835 834 834 833 833 832 831 830 829 829 828 827 826 826 825 825 824 824 823 822 821 820 819 819 818 820 822 818 815 816 815 814 813 812 812 811 810 809 808 808 808 808 807 808 809 809 808 809 813 815 817 820 818 818 819 820 821 821 822 823 824 823 823 825 825 825 825 824 824 826 829 819 808 810 811 810 813 814 815 816 819 821 823 824 825
836 836 835 835 834 833 833 832 831 831 830 829 828 827 826 826 825 825 824 824 823 822 822 821 820 819 819 819 822 822 817 816 816 815 815 813 813 812 811 811 810 810 809 808 808 808 808 808 808 808 809 812 814 819 821 818 819 820 820 821 822 824 824 824 823 823 825 824 824 826 827 827 829 828 815 807 810 811 809 810 813 814 815 818 821 822 824 825
837 836 835 835 834 833 832 832 831 830 829 828 827 826 826 825 825 824 824 823 823 822 821 821 820 819 819 819 821 820 817 816 816 815 815 814 813 812 812 811 810 811 810 809 809 809 809 808 807 809 811 812 815 819 819 819 820 820 821 821 823 825 823 821 822 823 824 823 824 827 824 824 828 821 808 808 812 812 810 810 812 815 816 818 820 822 824 825
837 836 835 835 834 833 832 831 830 829 828 827 826 825 825 824 824 823 823 823 822 821 821 820 820 819 819 820 819 818 817 817 816 816 815 814 813 813 812 812 811 811 811 810 810 809 809 808 807 809 812 813 816 819 818 820 821 821 824 824 825 825 820 821 823 824 824 823 823 825 820 816 819 814 806 811 814 812 812 812 813 816 818 820 821 822 823 825
837 836 835 835 834 833 832 831 830 829 828 827 826 825 824 823 823 823 822 822 821 821 820 820 819 818 819 819 818 817 817 817 816 816 815 814 813 812 812 812 811 811 811 811 810 810 809 808 808 809 814 815 817 818 819 823 822 824 827 827 832 827 817 821 825 823 823 824 822 824 823 814 811 811 809 813 814 812 813 814 815 816 819 821 822 823 825 828
836 836 835 835 834 833 832 831 829 828 827 826 825 824 824 823 822 822 821 821 820 820 819 819 819 818 820 819 817 817 817 816 816 816 815 814 813 812 812 811 811 811 811 810 810 810 810 809 809 811 816 818 817 819 822 826 825 828 826 825 837 832 820 821 824 824 822 824 825 824 825 817 810 812 811 813 814 813 814 816 816 817 821 823 824 827 829 831
837 836 835 835 834 833 832 830 829 828 827 825 824 824 823 822 822 821 821 820 819 818 818 819 818 818 821 820 817 817 817 817 816 816 815 814 814 813 812 811 810 810 810 810 810 810 810 810 813 816 817 818 819 820 824 827 827 831 830 824 830 832 826 822 822 827 824 823 826 825 824 816 811 813 811 812 815 814 815 818 820 822 825 827 828 831 832 833
837 836 835 835 834 833 831 830 828 827 826 825 824 823 822 821 821 820 820 819 818 817 817 818 817 818 820 818 817 818 818 817 816 816 815 815 814 813 812 811 811 810 810 809 809 810 810 812 816 817 818 821 824 823 824 826 823 828 834 829 828 830 829 823 820 827 828 825 825 826 827 816 812 817 814 815 816 814 817 821 825 828 829 831 832 833 834 836
837 836 835 835 834 833 831 829 828 826 825 824 823 821 821 820 819 819 819 818 817 817 817 817 817 820 822 818 818 819 817 817 816 815 815 814 814 813 812 812 812 811 811 811 810 811 812 814 818 818 820 823 825 824 823 822 820 821 827 826 825 828 829 824 821 825 828 828 826 828 829 818 816 821 817 818 819 816 822 827 828 831 832 833 834 835 837 838
837 836 835 835 834 832 831 829 827 826 825 823 822 820 819 819 818 819 818 817 818 819 821 821 820 824 824 820 820 819 816 816 815 815 815 814 813 812 812 812 812 812 813 814 812 813 815 816 819 819 818 819 820 821 819 819 821 821 823 825 823 824 825 823 823 827 829 828 826 827 825 818 820 823 818 819 822 823 827 830 831 833 835 835 836 838 840 841
837 836 836 835 833 832 831 829 827 826 824 823 821 819 820 822 822 821 820 819 822 824 824 825 824 824 822 820 820 818 816 815 815 815 815 814 812 811 812 812 812 813 815 816 814 816 818 818 820 818 815 817 821 823 823 824 827 826 826 826 826 828 826 822 824 829 831 825 821 826 825 820 824 826 821 820 825 829 829 831 834 836 837 838 839 841 842 843
837 836 836 834 833 832 830 829 828 826 825 823 821 821 824 827 827 827 825 824 824 825 825 825 825 824 822 822 821 819 818 816 815 815 815 814 812 812 812 813 814 814 817 819 818 818 820 819 820 819 820 824 826 827 827 827 828 827 828 828 829 832 827 824 827 830 832 826 822 828 826 822 829 831 826 824 828 833 832 833 836 837 839 841 841 843 844 844
837 836 835 834 833 832 830 829 828 827 826 824 822 824 827 828 829 829 829 827 825 825 825 825 825 824 822 822 821 821 821 819 817 815 815 814 812 813 815 815 817 817 818 821 819 820 821 818 820 826 829 830 828 829 828 827 829 829 831 831 828 830 828 826 830 831 831 826 821 825 825 825 833 835 831 830 831 835 835 835 837 838 840 842 843 844 845 846
837 836 835 834 833 831 830 829 828 827 826 825 824 826 828 828 829 829 830 830 828 825 825 825 825 824 823 822 822 821 821 822 820 817 816 815 814 817 817 816 819 818 818 819 819 821 820 818 826 831 830 828 827 830 830 828 830 829 831 831 826 829 829 823 826 829 829 829 825 825 827 831 835 835 836 836 836 839 839 839 840 840 841 843 846 846 847 848
837 836 835 833 832 831 830 829 828 827 826 826 826 827 828 828 829 829 829 830 829 826 825 826 826 825 824 823 822 822 822 824 823 819 818 818 818 820 819 819 820 819 820 821 822 821 819 825 833 832 829 828 827 830 831 828 828 828 829 828 824 826 828 825 828 830 827 829 830 826 825 831 837 839 841 842 841 842 842 842 843 844 846 847 848 849 850 850
836 835 834 833 832 830 829 829 828 827 827 827 827 827 828 828 829 829 829 831 831 827 825 826 826 825 824 823 822 823 823 823 823 821 820 820 820 820 820 822 821 819 821 824 824 820 821 831 835 829 829 831 828 828 830 828 828 828 825 826 826 825 827 829 831 829 824 824 828 826 821 828 841 843 842 843 843 845 846 845 846 848 850 850 851 852 852 851
836 835 834 833 831 830 829 829 828 828 827 827 828 828 828 829 829 829 830 834 833 829 827 826 826 825 823 823 823 823 824 823 822 822 822 821 822 821 821 822 823 822 822 823 824 824 827 834 835 830 830 832 830 828 831 833 829 826 825 829 832 830 830 831 830 829 825 823 828 831 823 828 841 842 841 845 846 848 849 848 850 852 852 853 854 854 853 852
836 835 834 832 831 830 829 829 828 828 827 828 828 827 828 828 829 829 831 837 838 832 829 827 825 825 824 824 824 824 825 823 822 822 822 822 822 822 821 822 823 822 824 824 821 825 830 831 832 833 831 831 828 826 832 836 828 824 831 835 833 832 832 833 833 832 831 830 831 833 829 827 834 836 839 847 849 849 851 851 853 854 855 856 855 855 854 853
835 835 833 832 831 830 829 829 828 828 828 828 827 827 828 828 829 829 832 842 842 831 829 828 825 825 824 824 824 825 825 824 823 823 823 822 822 822 821 822 824 823 826 825 821 827 832 828 829 831 830 829 826 827 834 835 827 826 835 839 835 835 835 836 836 835 839 837 825 827 833 825 826 836 843 847 850 850 851 852 855 857 857 857 856 855 855 854
835 834 833 832 831 830 829 829 828 828 828 827 827 827 827 827 829 830 834 843 840 830 831 828 824 826 827 825 826 827 825 825 826 824 822 823 822 822 823 825 827 825 827 828 822 826 833 833 833 831 828 829 828 831 836 833 828 831 838 840 839 841 840 839 839 837 840 835 818 820 830 820 821 841 849 846 848 849 849 853 856 858 858 856 856 856 855 854
835 834 833 832 830 830 829 828 828 828 827 827 827 827 827 827 829 834 841 843 836 831 831 826 826 831 831 828 827 829 829 828 829 826 823 825 823 823 827 828 828 827 828 830 825 829 837 838 838 835 833 833 833 835 838 836 833 835 837 833 832 839 842 841 843 842 835 826 818 824 831 822 820 834 842 840 840 842 846 854 858 858 858 857 857 857 855 854
835 834 833 831 831 830 829 829 828 827 827 826 826 826 826 829 832 839 845 841 834 833 830 829 834 835 836 837 833 832 832 830 831 829 825 827 828 827 827 827 828 825 823 825 824 830 836 835 835 838 839 839 836 834 838 840 838 835 833 829 826 829 834 836 839 839 828 818 819 828 834 828 818 823 833 836 837 841 846 852 857 858 858 859 858 857 856 855
835 834 833 831 831 829 829 829 827 827 826 825 826 825 828 834 837 841 843 836 835 838 836 838 840 838 842 843 839 839 837 833 833 834 833 835 837 839 838 837 837 828 824 830 829 825 828 834 839 839 839 841 834 828 832 836 835 832 830 830 827 825 827 826 827 831 826 818 822 829 830 826 820 826 837 840 841 845 848 851 855 857 858 859 859 857 857 857
834 834 833 832 831 830 829 828 827 826 825 825 825 825 830 838 842 847 845 838 840 843 842 844 844 844 845 840 838 844 842 836 834 836 838 838 839 845 848 849 848 836 830 838 837 827 826 833 838 834 834 840 836 826 825 828 830 829 829 830 828 828 832 827 826 833 826 818 825 832 829 820 820 834 844 845 847 849 852 854 855 856 858 859 859 858 858 859
834 833 833 832 831 830 829 828 827 826 825 824 825 827 834 842 846 850 847 843 846 846 846 849 847 844 844 840 842 846 839 836 838 836 835 836 837 841 843 845 849 843 837 838 839 837 832 827 829 830 832 837 837 833 833 832 831 833 835 836 830 827 832 829 826 828 824 825 830 830 826 821 825 841 851 851 854 855 856 858 858 858 860 859 859 859 860 861
833 833 833 832 831 830 829 828 827 825 824 824 827 833 841 847 849 850 849 850 852 850 848 852 849 841 839 843 847 848 841 837 840 838 835 838 842 845 846 846 850 849 841 837 838 843 838 827 829 838 840 839 837 839 844 837 831 837 841 837 832 829 831 831 833 836 838 840 836 827 830 838 842 851 858 857 857 858 858 859 860 859 860 859 860 862 863 864
833 833 832 832 831 830 828 827 826 825 825 825 831 840 848 852 852 853 855 856 857 856 851 847 845 840 839 842 843 846 846 842 841 839 838 845 848 849 850 851 855 853 846 842 841 843 839 829 831 840 840 841 842 842 845 839 830 835 838 833 836 840 836 832 838 846 848 844 835 827 835 849 851 851 858 859 857 859 860 860 860 861 861 861 862 865 866 866
833 833 832 832 831 830 829 828 826 825 825 827 835 847 854 857 858 859 861 860 860 861 855 845 843 844 846 845 841 843 845 842 843 841 841 846 847 848 851 852 856 857 853 851 845 845 845 834 832 838 834 839 849 846 843 845 839 834 834 835 841 844 841 841 842 841 843 843 835 829 836 846 846 846 856 861 860 862 862 861 862 863 863 864 866 867 868 867
833 833 833 832 831 830 829 827 827 826 826 832 842 853 858 858 862 866 866 865 863 860 855 849 847 847 850 849 845 847 846 841 842 843 843 844 845 849 852 852 856 858 860 857 847 848 852 839 833 841 839 840 849 844 836 843 847 840 838 841 841 837 835 841 844 839 842 846 839 835 839 840 841 846 854 860 862 865 865 863 864 865 866 867 868 868 868 868
833 833 834 833 831 830 829 827 827 826 828 839 848 854 858 860 864 869 869 867 865 859 854 855 855 851 851 853 851 851 850 847 846 846 845 844 845 850 855 856 855 856 861 859 851 851 854 845 836 839 845 842 840 837 831 833 842 843 843 843 842 841 838 840 844 843 843 844 843 840 833 832 846 856 857 860 865 866 866 866 866 867 868 869 869 869 869 869
833 834 835 834 831 830 829 827 827 829 835 848 854 855 860 862 863 869 871 868 865 860 857 858 859 854 853 855 855 854 853 851 850 848 846 847 846 848 859 865 858 856 861 860 856 855 852 849 840 835 841 840 832 834 833 832 837 838 838 838 838 841 843 843 846 848 846 841 844 845 833 836 857 863 858 863 867 867 867 867 867 868 869 869 869 870 870 870
833 835 836 834 831 831 829 828 836 843 846 853 858 859 862 864 864 867 870 870 866 863 862 861 859 857 856 856 855 856 855 851 851 850 847 849 847 846 860 872 866 862 861 854 855 857 852 852 849 840 838 832 828 838 843 841 842 840 836 836 838 840 841 843 846 852 853 844 845 848 839 844 862 863 861 867 866 867 869 868 869 870 870 870 870 870 871 870
835 838 837 833 831 830 829 835 849 855 851 854 861 864 865 867 866 865 867 869 866 864 864 862 860 860 859 857 857 858 857 852 851 850 848 851 851 851 862 874 872 869 863 854 857 862 858 859 857 848 841 835 836 845 849 847 847 846 843 841 843 844 841 840 842 848 852 850 852 855 847 851 865 865 864 867 866 868 869 868 871 872 871 872 871 871 871 870
838 839 836 833 832 830 831 840 851 855 857 864 868 868 869 868 866 864 865 865 864 863 862 861 862 861 859 861 861 858 857 854 851 851 851 852 854 860 868 873 871 869 865 858 859 862 860 859 857 846 839 838 840 845 849 850 847 843 843 845 846 845 843 844 847 851 852 847 849 852 848 853 866 867 866 868 868 869 869 870 873 873 872 873 871 870 871 869
841 841 838 835 831 829 834 845 850 852 860 866 865 865 868 869 867 864 864 864 865 864 861 861 863 863 862 865 863 859 858 855 851 853 854 852 856 866 872 871 869 866 863 859 860 860 855 853 854 849 842 837 836 838 840 843 842 839 841 849 852 850 850 852 856 859 856 850 851 850 843 851 866 868 867 869 869 870 872 872 873 873 873 872 870 870 870 868
842 841 841 839 834 833 843 852 852 852 858 861 859 861 864 866 869 869 867 867 869 869 865 864 867 866 866 866 863 861 861 857 853 855 857 854 857 867 872 870 869 868 866 867 868 864 858 856 855 851 849 846 842 839 838 839 843 843 845 851 853 852 850 850 852 855 852 855 859 850 840 853 870 870 868 872 873 874 874 873 873 874 873 871 871 870 868 867
841 842 843 842 841 843 852 859 856 853 857 858 857 861 863 861 866 873 872 868 870 871 868 867 868 866 864 863 861 859 859 859 857 855 855 852 853 864 872 871 871 870 869 870 870 867 864 863 858 851 850 849 845 842 844 848 849 847 846 848 850 855 856 852 852 852 852 858 860 849 846 858 866 869 872 875 876 876 875 874 873 872 870 870 869 868 866 866
843 847 851 848 846 848 853 858 858 856 858 858 857 862 864 861 863 868 870 868 870 871 869 867 867 863 861 863 862 859 858 860 859 857 857 857 857 864 871 872 871 870 870 870 870 868 862 859 860 859 853 850 850 847 847 853 855 851 850 848 849 857 858 851 848 849 853 859 856 854 860 861 859 869 877 876 875 876 875 873 872 871 869 868 867 867 866 865
846 852 857 854 851 852 853 856 860 860 860 861 863 864 863 861 862 863 865 868 870 869 865 862 865 865 865 866 864 860 858 856 856 856 858 862 863 861 863 867 870 870 870 869 869 869 863 858 864 865 855 851 854 852 850 856 856 853 856 857 854 857 855 850 850 854 859 859 852 856 866 864 863 873 877 874 874 875 873 872 871 869 868 867 866 866 864 863
849 852 858 858 855 858 861 863 864 861 859 861 863 864 863 862 862 865 868 866 864 867 866 859 860 865 867 868 866 861 859 855 854 857 860 863 866 862 859 861 866 871 870 866 868 871 865 860 866 868 859 851 850 850 853 856 854 855 865 869 864 860 859 858 859 863 866 861 856 862 869 866 868 875 876 873 873 872 871 870 868 867 865 865 865 864 863 862
848 849 854 856 856 862 865 866 863 857 859 863 861 863 867 865 863 867 871 867 860 863 867 862 861 866 867 868 866 860 858 858 856 859 863 865 866 866 863 861 865 870 868 866 870 870 865 863 867 869 861 848 845 847 848 851 854 857 865 871 867 862 863 866 865 866 867 863 863 870 869 864 868 875 874 872 871 870 870 869 867 865 865 865 865 864 863 862
847 848 851 851 855 863 863 863 864 857 857 863 863 864 867 866 867 869 870 872 868 864 867 866 866 868 868 867 865 860 861 864 862 863 867 868 867 868 866 866 868 869 867 868 871 869 866 867 867 868 860 848 846 848 846 850 856 858 862 870 870 865 865 867 867 867 869 868 869 871 867 864 869 873 872 871 871 870 870 869 867 865 865 866 865 864 862 862
848 849 850 849 854 864 864 862 864 859 860 867 869 868 868 867 872 871 864 869 873 871 870 871 870 869 864 860 861 863 867 870 869 870 872 872 872 872 870 870 871 870 868 870 873 873 872 869 866 869 863 849 846 850 852 850 843 843 859 873 873 870 870 869 869 868 869 871 870 866 864 867 872 873 872 871 871 871 870 869 866 865 866 867 865 864 862 862